OBJECT F, 57429

Orbit data source: Space-Track

You're viewing an Uncataloged Satellite

Recently launched and/or uncataloged satellites may have evolving metadata. Metadata may include but not limited to: Owner, Maufacturer, Bus, Motor, and Mission.

OBJECT F, 57429 is a satellite owned by Yinhe (CN) in SSO that was launched on Sun, 23 Jul 2023 UTC via a CHANG ZHENG 2D launch vehicle from the Taiyaun Space Center, China (TSC). Unknown objects in Earth's orbit typically refer to objects detected orbiting the Earth but have not yet been identified or cataloged. These objects could be anything from previously untracked satellites, spent rocket stages, debris from satellite collisions, or even natural meteoroids temporarily captured by Earth's gravity.

Loading next visibility...
OBJECT F details
Identifier
57429, 2023-104F
Orbit
SSO
Last TLE update9 hours ago
Origin
Flag of CNYinhe (CN / PRC)
ManufacturerYinhe
MissionSpacecraft
Bus & MotorUnknown
Mass~300 kg wet, ~300 kg dry
Launch date (UTC)
2023-07-23 (1 year ago)
Launch vehicle
CHANG ZHENG 2D
Launch site
Taiyaun Space Center, China (TSC)
Object typeUnknown
Shape & HBRUnknown
Radar Cross SectionMedium (>0.1 m² and <1 m²)

Expand to show TLE details & history

TLE from 9 hours ago
0 OBJECT F
1 57429U 23104F   24356.15932835  .00018301  00000-0  62445-3 0  9990
2 57429  97.3310  60.2249 0030499 199.2049 160.8044 15.29934646 78854
Epoch: 2024-12-21T03:49Z
Definitive object data (Epoch: 2024-12-21T03:49:25.969Z)
Latitude-0.00009°
Longitude-87.34778°
Altitude498.867 km
Speed7.604 km/s
True Right ascension04h 00m 53s
True Declination0° 00' 00"
Sunlit
Object was in full shadow at TLE epoch
Visualization TLE readout
Latitude-82.51745°
Longitude16.08589°
Altitude497.298 km
Speed7.619 km/s
Apparent Right ascension00h 05m 01s
Apparent Declination-69° 37' 40"
Sunlit
Object is in daylight
Visualization observer readout
Local Sidereal Time11:52:18
Azimuth182.228° SSW
Elevation-60.241°
Doppler factor1
Orbital elements
Apogee altitude493.852 km
Perigee altitude452.062 km
Semi-major axis6,851.094 km
Eccentricity0.0030499
Inclination97.331°
RAAN60.2249°
Arg. of periapsis199.2049°
True anomaly160.9189°
Mean anomaly160.8044°
Eccentric anomaly160.86169°
Mean motion3.8274 °/min
BSTAR0.00062445
Orbital period94.06 mins
Loading maneuver chart data...
Loading historical data...
Loading historical data...
Loading historical data...
Loading historical data...
Loading historical data...
Loading historical data...
Loading historical data...

OBJECT F Visibility forecast

Observer location: undefined°, undefined

Span
Click to sort rows by Start time (UTC) header in descending order
Start Az.
Max El. time (UTC)
Max El. Az.
Max El.
End time (UTC)
End Az.
5 mins2024-12-21 16:57:26.765Z36.478° NE2024-12-21 16:59:26.765Z85.256° E30.804°2024-12-21 17:02:26.765Z164.208° S
5 mins2024-12-22 05:04:26.765Z206.766° SW2024-12-22 05:06:26.765Z254.991° W28.565°2024-12-22 05:09:26.765Z324.536° NNW
|